Tracking 25693 objects as of 1-Jul-2022
HD Live streaming from Space Station
objects crossing your sky now

DMSP 5D-2 F13 DEB

Track DMSP 5D-2 F13 DEB now!
10-day predictions


NORAD ID: 40516
Int'l Code: 1995-015DC
Perigee: 814.7 km
Apogee: 857.6 km
Inclination: 98.8 °
Period: 101.5 minutes
Semi major axis: 7207 km
RCS: Unknown
Launch date: March 24, 1995
Source: United States (US)
Launch site: AIR FORCE WESTERN TEST RANGE (AFWTR)

Note: This is SATELLITE DEBRIS
aabbcc
Your satellite tracking list
Your tracking list is empty




NASA's NSSDC Master Catalog

Two Line Element Set (TLE):
1 40516U 95015DC  22181.45418468  .00001153  00000-0  57226-3 0  9995
2 40516  98.8336 184.0591 0029760  21.6238 338.6187 14.18926350375942
Source of the keplerian elements: AFSPC